{"data":{"norad_id":46538,"intl_designator":"2020-070G","name":"STARLINK-1678","alt_names":[],"object_type":"PAYLOAD","status":"ACTIVE","operator":null,"country":"US","launch_date":"2020-10-06","launch_site_code":"AFETR","launch_vehicle":null,"mission":null,"orbit_class":"UNKNOWN","rcs_meters":null,"size_class":null,"mass_kg":null,"dimensions":null,"purposes":["comms"],"wikipedia_slug":null,"has_3d_model":false,"image_url":null,"decayed_at":null,"tle_current":{"epoch":"2026-05-25T03:06:32.825376Z","epoch_age_seconds":57248,"freshness":"FRESH","line1":"1 46538U 20070G   26145.12954659  .00156854  00000+0  81157-3 0  9997","line2":"2 46538  53.0345  92.8089 0006650  74.2393 285.9361 15.80086428312438","mean_motion":15.80086428,"eccentricity":0.000665,"inclination_deg":53.0345,"raan_deg":92.8089,"arg_perigee_deg":74.2393,"mean_anomaly_deg":285.9361,"bstar":0.00081157,"rev_number":31243,"period_min":91.134255347202,"perigee_km":325.73495969944,"apogee_km":334.65704259097,"semimajor_km":6708.3330011452,"source":"CELESTRAK","updated_at":"2026-05-25T13:38:16.509696Z"}}}